Location: Centrum přírodních věd - Hvězdárna Jičín
(50.4344°N, 15.3406°E)
Time: 10:13:10
(UTC+01:00)

ISS - Visible Passes

Search period start: 12 February 2026 00:00
Search period end: 22 February 2026 00:00
Orbit: 413 x 429 km, 51.6° (Epoch: 11 February)

Date Brightness Start Highest point End Pass type
(mag) Time Alt. Az. Time Alt. Az. Time Alt. Az.
12 Feb -0.9 06:21:20 10° S 06:23:41 18° SE 06:26:03 10° E visible
13 Feb -0.7 05:35:24 10° SSE 05:36:51 12° SE 05:38:18 10° ESE visible
14 Feb -2.3 06:22:59 10° SW 06:26:06 37° SSE 06:29:13 10° E visible
15 Feb -1.8 05:36:19 10° SSW 05:39:08 26° SE 05:42:00 10° E visible
16 Feb -1.5 04:51:28 17° SSE 04:52:11 19° SE 04:54:36 10° E visible
16 Feb -3.5 06:25:16 10° WSW 06:28:36 70° SSE 06:31:56 10° ENE visible
17 Feb -0.5 04:06:29 11° ESE 04:06:29 11° ESE 04:06:49 10° ESE visible
17 Feb -3.2 05:39:28 20° SW 05:41:30 52° SSE 05:44:47 10° ENE visible
18 Feb -2.7 04:54:21 38° SSE 04:54:26 38° SSE 04:57:34 10° E visible
18 Feb -3.8 06:27:47 10° W 06:31:08 79° N 06:34:29 10° ENE visible
19 Feb -1.0 04:09:07 17° E 04:09:07 17° E 04:10:15 10° E visible
19 Feb -3.8 05:42:06 25° WSW 05:43:56 89° SSE 05:47:17 10° ENE visible
20 Feb -3.7 04:56:48 71° SSE 04:56:48 71° SSE 05:00:05 10° ENE visible
21 Feb -1.3 04:11:25 23° E 04:11:25 23° E 04:12:50 10° ENE visible
21 Feb -3.7 05:44:24 22° W 05:46:22 71° N 05:49:43 10° E visible
